| time (UTC) | temp F | wind direction | speed MPH | gust MPH | rain 1hr in | rain 24hr in | rain mn in | humidity % | barometer mb |
| 20260904171043 | 72 | 197 | 8.0 | 16.0 | 0.00 | 0.01 | 0.01 | 93 | 1013.6 |
| 20260904170544 | 72 | 197 | 8.0 | 16.0 | 0.00 | 0.01 | 0.01 | 94 | 1013.5 |
| 20260904170101 | 71 | 195 | 11.0 | 18.0 | 0.00 | 0.01 | 0.01 | 93 | 1013.9 |
| 20260904165543 | 71 | 216 | 10.0 | 18.0 | 0.00 | 0.01 | 0.01 | 94 | 1013.9 |
| 20260904165043 | 71 | 178 | 9.0 | 17.0 | 0.00 | 0.01 | 0.01 | 94 | 1014.3 |
| 20260904164600 | 71 | 190 | 9.0 | 17.0 | 0.00 | 0.01 | 0.01 | 94 | 1013.9 |
| 20260904164044 | 71 | 180 | 7.0 | 11.0 | 0.00 | 0.01 | 0.01 | 94 | 1014.2 |
| 20260904163542 | 71 | 190 | 6.0 | 12.0 | 0.00 | 0.01 | 0.01 | 93 | 1014.3 |
| 20260904163055 | 71 | 186 | 8.0 | 12.0 | 0.00 | 0.01 | 0.01 | 93 | 1014.2 |
| 20260904162544 | 71 | 198 | 7.0 | 11.0 | 0.00 | 0.01 | 0.01 | 93 | 1014.4 |
| 20260904162044 | 71 | 207 | 4.0 | 11.0 | 0.00 | 0.01 | 0.01 | 92 | 1014.5 |
| 20260904161558 | 71 | 159 | 4.0 | 15.0 | 0.00 | 0.01 | 0.01 | 91 | 1015.0 |
| 20260904161045 | 71 | 191 | 8.0 | 15.0 | 0.00 | 0.01 | 0.01 | 91 | 1015.4 |
| 20260904160544 | 71 | 163 | 6.0 | 11.0 | 0.00 | 0.01 | 0.01 | 91 | 1015.3 |
| 20260904160059 | 72 | 164 | 7.0 | 10.0 | 0.00 | 0.01 | 0.01 | 91 | 1015.3 |
| 20260904155543 | 71 | 180 | 4.0 | 8.0 | 0.00 | 0.01 | 0.01 | 90 | 1016.0 |
| 20260904155042 | 71 | 0 | 1.0 | 3.0 | 0.00 | 0.01 | 0.01 | 90 | 1016.8 |
| 20260904154600 | 71 | 0 | 0.0 | 3.0 | 0.00 | 0.01 | 0.01 | 90 | 1016.6 |
| 20260904154042 | 71 | 309 | 0.0 | 4.0 | 0.00 | 0.01 | 0.01 | 90 | 1016.8 |
| 20260904153542 | 71 | 120 | 1.0 | 5.0 | 0.00 | 0.01 | 0.01 | 90 | 1016.6 |
| 20260904153103 | 71 | 128 | 1.0 | 5.0 | 0.00 | 0.01 | 0.01 | 91 | 1016.3 |
| 20260904152541 | 70 | 186 | 0.0 | 7.0 | 0.00 | 0.01 | 0.01 | 91 | 1016.6 |
| 20260904152043 | 70 | 208 | 2.0 | 7.0 | 0.00 | 0.01 | 0.01 | 91 | 1016.5 |
| 20260904151601 | 70 | 200 | 1.0 | 8.0 | 0.00 | 0.01 | 0.01 | 92 | 1016.2 |
| 20260904151043 | 70 | 171 | 3.0 | 8.0 | 0.00 | 0.01 | 0.01 | 93 | 1016.1 |
| 20260904150542 | 70 | 178 | 2.0 | 6.0 | 0.00 | 0.01 | 0.01 | 93 | 1015.8 |
| 20260904150059 | 70 | 136 | 1.0 | 5.0 | 0.00 | 0.01 | 0.01 | 94 | 1015.9 |
| 20260904145544 | 70 | 152 | 0.0 | 4.0 | 0.00 | 0.01 | 0.01 | 94 | 1016.0 |
| 20260904145043 | 70 | 102 | 1.0 | 4.0 | 0.00 | 0.01 | 0.01 | 94 | 1016.3 |
| 20260904144556 | 70 | 105 | 0.0 | 3.0 | 0.00 | 0.01 | 0.01 | 94 | 1016.6 |
| 20260904144043 | 70 | 27 | 0.0 | 5.0 | 0.00 | 0.01 | 0.01 | 94 | 1016.5 |
| 20260904143542 | 69 | 0 | 1.0 | 5.0 | 0.00 | 0.01 | 0.01 | 94 | 1016.1 |
| 20260904143106 | 69 | 0 | 0.0 | 2.0 | 0.00 | 0.01 | 0.01 | 94 | 1016.0 |
| 20260904142543 | 69 | 150 | 0.0 | 3.0 | 0.00 | 0.01 | 0.01 | 94 | 1016.3 |
| 20260904142044 | 69 | 0 | 0.0 | 5.0 | 0.00 | 0.01 | 0.01 | 95 | 1016.5 |
| 20260904141605 | 69 | 0 | 0.0 | 6.0 | 0.00 | 0.01 | 0.01 | 94 | 1016.5 |
| 20260904141045 | 69 | 9 | 1.0 | 6.0 | 0.00 | 0.01 | 0.01 | 94 | 1016.5 |
| 20260904140541 | 69 | 355 | 1.0 | 9.0 | 0.00 | 0.01 | 0.01 | 94 | 1016.7 |
| 20260904140107 | 69 | 329 | 2.0 | 9.0 | 0.00 | 0.01 | 0.01 | 94 | 1016.8 |
| 20260904135544 | 69 | 24 | 3.0 | 9.0 | 0.00 | 0.01 | 0.01 | 95 | 1017.0 |
| 20260904135043 | 69 | 24 | 2.0 | 10.0 | 0.00 | 0.01 | 0.01 | 95 | 1017.1 |
| 20260904134606 | 69 | 340 | 3.0 | 10.0 | 0.00 | 0.01 | 0.01 | 95 | 1016.7 |
| 20260904134043 | 69 | 5 | 3.0 | 9.0 | 0.00 | 0.01 | 0.01 | 95 | 1016.8 |
| 20260904133543 | 69 | 5 | 2.0 | 4.0 | 0.00 | 0.01 | 0.01 | 95 | 1016.5 |
| 20260904133104 | 69 | 355 | 0.0 | 3.0 | 0.00 | 0.01 | 0.01 | 95 | 1015.8 |
| 20260904132545 | 69 | 0 | 0.0 | 3.0 | 0.00 | 0.01 | 0.01 | 95 | 1015.6 |
| 20260904132043 | 69 | 118 | 0.0 | 4.0 | 0.00 | 0.01 | 0.01 | 95 | 1015.1 |
| 20260904131600 | 69 | 0 | 0.0 | 4.0 | 0.00 | 0.01 | 0.01 | 95 | 1015.0 |
| 20260904131044 | 69 | 0 | 0.0 | 2.0 | 0.00 | 0.01 | 0.01 | 95 | 1015.2 |
| 20260904130542 | 69 | 45 | 0.0 | 6.0 | 0.00 | 0.01 | 0.01 | 95 | 1015.2 |
| 20260904130059 | 69 | 96 | 0.0 | 7.0 | 0.00 | 0.01 | 0.01 | 95 | 1015.3 |
| 20260904125544 | 69 | 47 | 1.0 | 12.0 | 0.00 | 0.01 | 0.01 | 95 | 1015.5 |
| 20260904125043 | 69 | 211 | 0.0 | 12.0 | 0.00 | 0.01 | 0.01 | 95 | 1015.4 |
| 20260904124610 | 69 | 13 | 2.0 | 12.0 | 0.00 | 0.01 | 0.01 | 95 | 1015.4 |
| 20260904124041 | 69 | 21 | 2.0 | 7.0 | 0.00 | 0.01 | 0.01 | 95 | 1015.3 |
| 20260904123544 | 69 | 30 | 1.0 | 7.0 | 0.00 | 0.01 | 0.01 | 95 | 1015.1 |
| 20260904123103 | 69 | 46 | 2.0 | 5.0 | 0.00 | 0.01 | 0.01 | 95 | 1015.0 |
| 20260904122546 | 69 | 355 | 1.0 | 5.0 | 0.00 | 0.01 | 0.01 | 95 | 1014.7 |
| 20260904122043 | 69 | 0 | 0.0 | 5.0 | 0.00 | 0.01 | 0.01 | 95 | 1015.0 |
| 20260904121559 | 69 | 190 | 0.0 | 5.0 | 0.00 | 0.01 | 0.01 | 95 | 1015.0 |
| 20260904121042 | 69 | 281 | 1.0 | 5.0 | 0.00 | 0.01 | 0.01 | 94 | 1014.8 |
| 20260904120542 | 69 | 17 | 1.0 | 5.0 | 0.01 | 0.01 | 0.01 | 94 | 1014.6 |
| 20260904120058 | 69 | 0 | 1.0 | 5.0 | 0.01 | 0.01 | 0.01 | 94 | 1014.4 |
| 20260904115542 | 69 | 39 | 1.0 | 4.0 | 0.01 | 0.01 | 0.01 | 94 | 1014.4 |
| 20260904115046 | 69 | 30 | 2.0 | 4.0 | 0.01 | 0.01 | 0.01 | 94 | 1014.1 |
| 20260904114554 | 69 | 20 | 1.0 | 3.0 | 0.01 | 0.01 | 0.01 | 94 | 1013.9 |
| 20260904114043 | 69 | 0 | 0.0 | 2.0 | 0.01 | 0.01 | 0.01 | 94 | 1013.6 |
| 20260904113543 | 69 | 0 | 0.0 | 1.0 | 0.01 | 0.01 | 0.01 | 94 | 1013.6 |
| 20260904113100 | 69 | 16 | 0.0 | 3.0 | 0.01 | 0.01 | 0.01 | 94 | 1013.7 |
| 20260904112542 | 70 | 0 | 0.0 | 3.0 | 0.01 | 0.01 | 0.01 | 94 | 1013.6 |
| 20260904112042 | 70 | 23 | 0.0 | 3.0 | 0.01 | 0.01 | 0.01 | 94 | 1013.6 |
| 20260904111600 | 70 | 34 | 0.0 | 3.0 | 0.01 | 0.01 | 0.01 | 94 | 1013.5 |
| 20260904111042 | 70 | 0 | 0.0 | 2.0 | 0.01 | 0.01 | 0.01 | 94 | 1013.4 |
| 20260904110544 | 70 | 280 | 0.0 | 3.0 | 0.00 | 0.00 | 0.00 | 94 | 1013.3 |
| 20260904110057 | 70 | 0 | 0.0 | 3.0 | 0.00 | 0.00 | 0.00 | 94 | 1013.3 |
| 20260904105547 | 71 | 0 | 0.0 | 3.0 | 0.00 | 0.00 | 0.00 | 94 | 1013.4 |
| 20260904105043 | 71 | 32 | 0.0 | 5.0 | 0.00 | 0.00 | 0.00 | 95 | 1013.1 |
| 20260904104602 | 71 | 26 | 1.0 | 5.0 | 0.00 | 0.00 | 0.00 | 95 | 1013.2 |
| 20260904104044 | 71 | 0 | 1.0 | 5.0 | 0.00 | 0.00 | 0.00 | 95 | 1013.3 |
| 20260904103542 | 71 | 26 | 1.0 | 5.0 | 0.00 | 0.00 | 0.00 | 95 | 1013.4 |
| 20260904103100 | 71 | 28 | 2.0 | 7.0 | 0.00 | 0.00 | 0.00 | 95 | 1013.4 |
| 20260904102546 | 72 | 0 | 1.0 | 8.0 | 0.00 | 0.00 | 0.00 | 95 | 1013.4 |
| 20260904102044 | 72 | 0 | 2.0 | 8.0 | 0.00 | 0.00 | 0.00 | 95 | 1013.6 |
| 20260904101556 | 72 | 9 | 1.0 | 6.0 | 0.00 | 0.00 | 0.00 | 95 | 1013.6 |
| 20260904101043 | 72 | 0 | 1.0 | 7.0 | 0.00 | 0.00 | 0.00 | 95 | 1013.5 |
| 20260904100544 | 72 | 19 | 2.0 | 7.0 | 0.00 | 0.00 | 0.00 | 95 | 1013.4 |
| 20260904100112 | 72 | 22 | 1.0 | 6.0 | 0.00 | 0.00 | 0.00 | 95 | 1013.5 |
| 20260904095544 | 72 | 32 | 0.0 | 6.0 | 0.00 | 0.00 | 0.00 | 95 | 1013.5 |
| 20260904095045 | 72 | 48 | 2.0 | 6.0 | 0.00 | 0.00 | 0.00 | 95 | 1013.3 |
| 20260904094559 | 72 | 0 | 2.0 | 6.0 | 0.00 | 0.00 | 0.00 | 95 | 1013.1 |
| 20260904094043 | 72 | 15 | 1.0 | 5.0 | 0.00 | 0.00 | 0.00 | 95 | 1013.5 |
| 20260904093545 | 72 | 0 | 0.0 | 0.0 | 0.00 | 0.00 | 0.00 | 95 | 1013.1 |
| 20260904093056 | 72 | 0 | 0.0 | 0.0 | 0.00 | 0.00 | 0.00 | 95 | 1012.9 |
| 20260904092545 | 72 | 0 | 0.0 | 0.0 | 0.00 | 0.00 | 0.00 | 95 | 1012.9 |
| 20260904092044 | 72 | 0 | 0.0 | 0.0 | 0.00 | 0.00 | 0.00 | 95 | 1012.9 |
| 20260904091556 | 72 | 0 | 0.0 | 0.0 | 0.00 | 0.00 | 0.00 | 95 | 1012.8 |
| 20260904091043 | 72 | 0 | 0.0 | 0.0 | 0.00 | 0.00 | 0.00 | 95 | 1012.7 |
| 20260904090543 | 72 | 0 | 0.0 | 0.0 | 0.00 | 0.00 | 0.00 | 95 | 1012.8 |
| 20260904090100 | 72 | 0 | 0.0 | 0.0 | 0.00 | 0.00 | 0.00 | 95 | 1012.8 |
| 20260904085545 | 72 | 0 | 0.0 | 0.0 | 0.00 | 0.00 | 0.00 | 95 | 1012.8 |
| 20260904085047 | 72 | 0 | 0.0 | 0.0 | 0.00 | 0.00 | 0.00 | 95 | 1012.5 |
| 20260904084608 | 72 | 0 | 0.0 | 0.0 | 0.00 | 0.00 | 0.00 | 95 | 1012.4 |
| 20260904084048 | 72 | 0 | 0.0 | 0.0 | 0.00 | 0.00 | 0.00 | 95 | 1012.6 |
| 20260904083545 | 72 | 0 | 0.0 | 0.0 | 0.00 | 0.00 | 0.00 | 95 | 1012.5 |
| 20260904083057 | 72 | 0 | 0.0 | 0.0 | 0.00 | 0.00 | 0.00 | 95 | 1012.3 |
| 20260904082552 | 72 | 0 | 0.0 | 0.0 | 0.00 | 0.00 | 0.00 | 95 | 1012.3 |
| 20260904082045 | 72 | 0 | 0.0 | 0.0 | 0.00 | 0.00 | 0.00 | 95 | 1012.1 |
| 20260904081601 | 71 | 0 | 0.0 | 0.0 | 0.00 | 0.00 | 0.00 | 95 | 1012.2 |
| 20260904081047 | 71 | 0 | 0.0 | 0.0 | 0.00 | 0.00 | 0.00 | 95 | 1012.5 |
| 20260904080543 | 71 | 0 | 0.0 | 0.0 | 0.00 | 0.00 | 0.00 | 95 | 1012.6 |
| 20260904075547 | 71 | 0 | 0.0 | 0.0 | 0.00 | 0.00 | 0.00 | 95 | 1012.9 |
| 20260904075045 | 71 | 0 | 0.0 | 0.0 | 0.00 | 0.00 | 0.00 | 95 | 1012.8 |
| 20260904074612 | 71 | 0 | 0.0 | 0.0 | 0.00 | 0.00 | 0.00 | 95 | 1012.9 |
| 20260904074045 | 71 | 0 | 0.0 | 0.0 | 0.00 | 0.00 | 0.00 | 95 | 1013.1 |
| 20260904073547 | 71 | 0 | 0.0 | 0.0 | 0.00 | 0.00 | 0.00 | 95 | 1013.1 |
| 20260904073101 | 71 | 0 | 0.0 | 0.0 | 0.00 | 0.00 | 0.00 | 95 | 1013.1 |
| 20260904072547 | 71 | 0 | 0.0 | 0.0 | 0.00 | 0.00 | 0.00 | 95 | 1013.0 |
| 20260904072043 | 71 | 0 | 0.0 | 3.0 | 0.00 | 0.00 | 0.00 | 95 | 1013.3 |
| 20260904071605 | 71 | 0 | 0.0 | 3.0 | 0.00 | 0.00 | 0.00 | 95 | 1013.2 |
| 20260904071045 | 71 | 0 | 0.0 | 6.0 | 0.00 | 0.00 | 0.00 | 95 | 1013.5 |
| 20260904070547 | 71 | 0 | 0.0 | 6.0 | 0.00 | 0.00 | 0.00 | 95 | 1013.4 |
| 20260904065546 | 71 | 10 | 1.0 | 3.0 | 0.00 | 0.00 | 0.00 | 94 | 1013.2 |
| 20260904065049 | 71 | 0 | 0.0 | 5.0 | 0.00 | 0.00 | 0.00 | 94 | 1013.3 |
| 20260904064602 | 71 | 0 | 0.0 | 5.0 | 0.00 | 0.00 | 0.00 | 94 | 1013.3 |
| 20260904064043 | 71 | 24 | 2.0 | 5.0 | 0.00 | 0.00 | 0.00 | 94 | 1013.3 |
| 20260904063543 | 71 | 19 | 0.0 | 3.0 | 0.00 | 0.00 | 0.00 | 94 | 1013.1 |
| 20260904063107 | 71 | 0 | 0.0 | 3.0 | 0.00 | 0.00 | 0.00 | 94 | 1013.3 |
| 20260904062545 | 71 | 0 | 0.0 | 3.0 | 0.00 | 0.00 | 0.00 | 94 | 1013.4 |
| 20260904062044 | 71 | 0 | 0.0 | 1.0 | 0.00 | 0.00 | 0.00 | 94 | 1013.4 |
| 20260904061603 | 71 | 0 | 0.0 | 0.0 | 0.00 | 0.00 | 0.00 | 93 | 1013.1 |
| 20260904061049 | 71 | 0 | 0.0 | 0.0 | 0.00 | 0.00 | 0.00 | 93 | 1013.0 |
| 20260904060544 | 72 | 0 | 0.0 | 0.0 | 0.00 | 0.00 | 0.00 | 93 | 1013.2 |
| 20260904060106 | 72 | 0 | 0.0 | 0.0 | 0.00 | 0.00 | 0.00 | 93 | 1013.1 |
| 20260904055545 | 72 | 0 | 0.0 | 0.0 | 0.00 | 0.00 | 0.00 | 94 | 1013.3 |
| 20260904055045 | 72 | 0 | 0.0 | 0.0 | 0.00 | 0.00 | 0.00 | 94 | 1013.5 |
| 20260904054606 | 72 | 0 | 0.0 | 0.0 | 0.00 | 0.00 | 0.00 | 94 | 1013.5 |
| 20260904054044 | 72 | 0 | 0.0 | 1.0 | 0.00 | 0.00 | 0.00 | 94 | 1013.6 |
| 20260904053548 | 72 | 0 | 0.0 | 1.0 | 0.00 | 0.00 | 0.00 | 94 | 1013.6 |
| 20260904053105 | 72 | 0 | 0.0 | 1.0 | 0.00 | 0.00 | 0.00 | 94 | 1013.5 |
| 20260904052547 | 72 | 0 | 0.0 | 1.0 | 0.00 | 0.00 | 0.00 | 93 | 1013.5 |
| 20260904052047 | 72 | 0 | 0.0 | 1.0 | 0.00 | 0.00 | 0.00 | 93 | 1013.7 |
| 20260904051609 | 72 | 0 | 0.0 | 1.0 | 0.00 | 0.00 | 0.00 | 93 | 1013.9 |
| 20260904051046 | 72 | 0 | 0.0 | 0.0 | 0.00 | 0.00 | 0.00 | 93 | 1013.9 |
| 20260904050546 | 72 | 0 | 0.0 | 0.0 | 0.00 | 0.00 | 0.00 | 93 | 1013.7 |
| 20260904050104 | 72 | 0 | 0.0 | 0.0 | 0.00 | 0.00 | 0.00 | 93 | 1013.8 |
| 20260904045546 | 72 | 0 | 0.0 | 0.0 | 0.00 | 0.00 | 0.00 | 93 | 1013.9 |
| 20260904045045 | 72 | 0 | 0.0 | 0.0 | 0.00 | 0.00 | 0.00 | 93 | 1014.1 |
| 20260904044606 | 72 | 0 | 0.0 | 0.0 | 0.00 | 0.00 | 0.00 | 93 | 1014.1 |
| 20260904044047 | 72 | 0 | 0.0 | 0.0 | 0.00 | 0.00 | 0.00 | 93 | 1013.9 |
| 20260904043547 | 72 | 0 | 0.0 | 0.0 | 0.00 | 0.00 | 0.00 | 93 | 1014.0 |
| 20260904043057 | 72 | 0 | 0.0 | 0.0 | 0.00 | 0.00 | 0.00 | 93 | 1014.1 |
| 20260904042546 | 72 | 0 | 0.0 | 0.0 | 0.00 | 0.00 | 0.00 | 93 | 1014.0 |
| 20260904042048 | 72 | 0 | 0.0 | 0.0 | 0.00 | 0.00 | 0.00 | 92 | 1014.1 |
| 20260904041555 | 72 | 0 | 0.0 | 0.0 | 0.00 | 0.00 | 0.00 | 92 | 1014.1 |
| 20260904041048 | 72 | 0 | 0.0 | 0.0 | 0.00 | 0.00 | 0.00 | 92 | 1014.2 |
| 20260904040549 | 72 | 0 | 0.0 | 0.0 | 0.00 | 0.00 | 0.00 | 92 | 1014.2 |
| 20260904040111 | 72 | 0 | 0.0 | 0.0 | 0.00 | 0.00 | 0.00 | 92 | 1014.0 |
| 20260904035546 | 72 | 0 | 0.0 | 0.0 | 0.00 | 0.01 | 0.00 | 92 | 1014.1 |
| 20260904035042 | 72 | 0 | 0.0 | 0.0 | 0.00 | 0.01 | 0.00 | 92 | 1014.0 |
| 20260904034603 | 72 | 0 | 0.0 | 0.0 | 0.00 | 0.01 | 0.00 | 91 | 1014.0 |
| 20260904034048 | 72 | 0 | 0.0 | 0.0 | 0.00 | 0.01 | 0.00 | 91 | 1014.1 |
| 20260904033546 | 72 | 0 | 0.0 | 0.0 | 0.00 | 0.01 | 0.00 | 91 | 1014.2 |
| 20260904033100 | 72 | 0 | 0.0 | 0.0 | 0.00 | 0.01 | 0.00 | 91 | 1014.4 |
| 20260904032546 | 72 | 0 | 0.0 | 0.0 | 0.00 | 0.01 | 0.00 | 91 | 1014.5 |
| 20260904032047 | 72 | 0 | 0.0 | 0.0 | 0.00 | 0.01 | 0.00 | 91 | 1014.6 |
| 20260904031604 | 72 | 0 | 0.0 | 0.0 | 0.00 | 0.01 | 0.00 | 91 | 1014.7 |
| 20260904031044 | 72 | 0 | 0.0 | 0.0 | 0.00 | 0.01 | 0.00 | 91 | 1014.5 |
| 20260904030546 | 72 | 0 | 0.0 | 0.0 | 0.00 | 0.01 | 0.00 | 91 | 1014.4 |
| 20260904030104 | 72 | 0 | 0.0 | 0.0 | 0.00 | 0.01 | 0.00 | 91 | 1014.5 |
| 20260904025546 | 72 | 0 | 0.0 | 0.0 | 0.00 | 0.01 | 0.00 | 91 | 1014.4 |
| 20260904025043 | 72 | 0 | 0.0 | 0.0 | 0.00 | 0.01 | 0.00 | 91 | 1014.5 |
| 20260904024604 | 72 | 0 | 0.0 | 0.0 | 0.00 | 0.01 | 0.00 | 90 | 1014.4 |
| 20260904024046 | 72 | 0 | 0.0 | 0.0 | 0.00 | 0.01 | 0.00 | 90 | 1014.5 |
| 20260904023546 | 73 | 0 | 0.0 | 0.0 | 0.00 | 0.01 | 0.00 | 90 | 1014.5 |
| 20260904023102 | 73 | 0 | 0.0 | 0.0 | 0.00 | 0.01 | 0.00 | 90 | 1014.5 |
| 20260904022546 | 73 | 0 | 0.0 | 0.0 | 0.00 | 0.01 | 0.00 | 89 | 1014.4 |
| 20260904022047 | 73 | 0 | 0.0 | 0.0 | 0.00 | 0.01 | 0.00 | 89 | 1014.3 |
| 20260904021605 | 73 | 0 | 0.0 | 0.0 | 0.00 | 0.01 | 0.00 | 89 | 1014.3 |
| 20260904021046 | 73 | 0 | 0.0 | 0.0 | 0.00 | 0.01 | 0.00 | 89 | 1014.3 |
| 20260904020546 | 73 | 0 | 0.0 | 0.0 | 0.00 | 0.01 | 0.00 | 89 | 1014.4 |
| 20260904020106 | 73 | 0 | 0.0 | 0.0 | 0.00 | 0.01 | 0.00 | 89 | 1014.4 |
| 20260904015544 | 73 | 0 | 0.0 | 0.0 | 0.00 | 0.01 | 0.00 | 89 | 1014.4 |
| 20260904015046 | 73 | 0 | 0.0 | 0.0 | 0.00 | 0.01 | 0.00 | 88 | 1014.2 |
| 20260904014609 | 73 | 0 | 0.0 | 0.0 | 0.00 | 0.01 | 0.00 | 88 | 1014.1 |
| 20260904014046 | 73 | 0 | 0.0 | 0.0 | 0.00 | 0.01 | 0.00 | 88 | 1013.9 |
| 20260904013548 | 74 | 0 | 0.0 | 0.0 | 0.00 | 0.01 | 0.00 | 88 | 1013.8 |
| 20260904013058 | 74 | 0 | 0.0 | 1.0 | 0.00 | 0.01 | 0.00 | 88 | 1013.9 |
| 20260904012544 | 74 | 0 | 0.0 | 1.0 | 0.00 | 0.01 | 0.00 | 87 | 1013.7 |
| 20260904012044 | 74 | 0 | 0.0 | 1.0 | 0.00 | 0.01 | 0.00 | 87 | 1013.7 |
| 20260904011601 | 74 | 0 | 0.0 | 0.0 | 0.00 | 0.01 | 0.00 | 87 | 1013.6 |
| 20260904011046 | 74 | 0 | 0.0 | 1.0 | 0.00 | 0.01 | 0.00 | 86 | 1013.6 |
| 20260904010544 | 74 | 0 | 0.0 | 1.0 | 0.00 | 0.01 | 0.00 | 86 | 1013.4 |
| 20260904010115 | 74 | 0 | 0.0 | 1.0 | 0.00 | 0.01 | 0.00 | 86 | 1013.5 |
| 20260904005548 | 75 | 0 | 0.0 | 1.0 | 0.00 | 0.01 | 0.00 | 86 | 1013.4 |
| 20260904005044 | 75 | 0 | 0.0 | 0.0 | 0.00 | 0.01 | 0.00 | 86 | 1013.3 |
| 20260904004602 | 75 | 0 | 0.0 | 0.0 | 0.00 | 0.01 | 0.00 | 85 | 1013.3 |
| 20260904004046 | 75 | 0 | 0.0 | 2.0 | 0.00 | 0.01 | 0.00 | 86 | 1013.2 |
| 20260904003545 | 75 | 0 | 0.0 | 2.0 | 0.00 | 0.01 | 0.00 | 86 | 1013.4 |
| 20260904003108 | 75 | 24 | 0.0 | 1.0 | 0.00 | 0.01 | 0.00 | 85 | 1013.4 |
| 20260904002545 | 75 | 0 | 0.0 | 1.0 | 0.00 | 0.01 | 0.00 | 85 | 1013.3 |
| 20260904002047 | 75 | 0 | 0.0 | 1.0 | 0.00 | 0.01 | 0.00 | 85 | 1013.2 |
| 20260904001601 | 76 | 0 | 0.0 | 1.0 | 0.00 | 0.01 | 0.00 | 85 | 1013.4 |
| 20260904001044 | 76 | 0 | 0.0 | 0.0 | 0.00 | 0.01 | 0.00 | 84 | 1013.3 |
| 20260904000544 | 76 | 0 | 0.0 | 0.0 | 0.00 | 0.01 | 0.00 | 84 | 1013.1 |
| 20260904000103 | 76 | 0 | 0.0 | 1.0 | 0.00 | 0.01 | 0.00 | 84 | 1013.1 |
| 20260903235545 | 76 | 0 | 0.0 | 2.0 | 0.00 | 0.01 | 0.00 | 84 | 1013.4 |
| 20260903235044 | 76 | 24 | 0.0 | 2.0 | 0.00 | 0.01 | 0.00 | 84 | 1013.4 |
| 20260903234601 | 76 | 11 | 0.0 | 3.0 | 0.00 | 0.01 | 0.00 | 83 | 1013.2 |
| 20260903234047 | 77 | 0 | 0.0 | 3.0 | 0.00 | 0.01 | 0.00 | 83 | 1013.1 |
| 20260903233548 | 77 | 13 | 0.0 | 1.0 | 0.00 | 0.01 | 0.00 | 82 | 1013.0 |
| 20260903233106 | 77 | 0 | 0.0 | 1.0 | 0.00 | 0.01 | 0.00 | 82 | 1013.0 |
| 20260903232544 | 77 | 0 | 0.0 | 2.0 | 0.00 | 0.01 | 0.00 | 82 | 1013.0 |
| 20260903232045 | 78 | 0 | 0.0 | 2.0 | 0.00 | 0.01 | 0.00 | 81 | 1012.9 |
| 20260903231557 | 78 | 17 | 0.0 | 2.0 | 0.00 | 0.01 | 0.00 | 81 | 1012.8 |
| 20260903231044 | 78 | 0 | 0.0 | 2.0 | 0.00 | 0.01 | 0.00 | 80 | 1012.9 |
| 20260903230544 | 78 | 0 | 0.0 | 2.0 | 0.00 | 0.01 | 0.00 | 80 | 1013.0 |
| 20260903230058 | 79 | 0 | 0.0 | 3.0 | 0.00 | 0.01 | 0.00 | 79 | 1013.0 |
| 20260903225545 | 79 | 107 | 0.0 | 3.0 | 0.00 | 0.01 | 0.00 | 79 | 1013.0 |
| 20260903225047 | 79 | 80 | 0.0 | 3.0 | 0.00 | 0.01 | 0.00 | 79 | 1013.0 |
| 20260903224557 | 80 | 0 | 0.0 | 3.0 | 0.00 | 0.01 | 0.00 | 78 | 1013.1 |
| 20260903224049 | 80 | 0 | 0.0 | 4.0 | 0.00 | 0.01 | 0.00 | 78 | 1013.1 |
| 20260903223545 | 80 | 9 | 0.0 | 4.0 | 0.00 | 0.01 | 0.00 | 78 | 1013.3 |
| 20260903223103 | 81 | 10 | 0.0 | 5.0 | 0.00 | 0.01 | 0.00 | 78 | 1013.2 |
| 20260903222547 | 81 | 22 | 1.0 | 5.0 | 0.00 | 0.01 | 0.00 | 78 | 1013.1 |
| 20260903222043 | 82 | 9 | 1.0 | 5.0 | 0.00 | 0.01 | 0.00 | 80 | 1012.9 |
| 20260903221559 | 82 | 19 | 1.0 | 5.0 | 0.00 | 0.01 | 0.00 | 81 | 1012.9 |
| 20260903221045 | 82 | 5 | 0.0 | 2.0 | 0.00 | 0.01 | 0.00 | 82 | 1012.9 |
| 20260903220547 | 82 | 0 | 0.0 | 1.0 | 0.00 | 0.01 | 0.00 | 83 | 1013.0 |
| 20260903220100 | 82 | 0 | 0.0 | 3.0 | 0.00 | 0.01 | 0.00 | 83 | 1013.0 |
| 20260903215547 | 82 | 0 | 0.0 | 3.0 | 0.00 | 0.01 | 0.00 | 82 | 1012.9 |
| 20260903215044 | 82 | 0 | 0.0 | 1.0 | 0.00 | 0.01 | 0.00 | 83 | 1013.0 |
| 20260903214558 | 82 | 0 | 0.0 | 0.0 | 0.00 | 0.01 | 0.00 | 83 | 1013.1 |
| 20260903214043 | 82 | 0 | 0.0 | 0.0 | 0.00 | 0.01 | 0.00 | 83 | 1013.2 |
| 20260903213543 | 82 | 0 | 0.0 | 0.0 | 0.00 | 0.01 | 0.00 | 83 | 1013.0 |
| 20260903213103 | 82 | 0 | 0.0 | 2.0 | 0.00 | 0.01 | 0.00 | 82 | 1013.0 |
| 20260903212543 | 82 | 0 | 0.0 | 2.0 | 0.00 | 0.01 | 0.00 | 82 | 1013.0 |
| 20260903212046 | 82 | 0 | 0.0 | 2.0 | 0.00 | 0.01 | 0.00 | 83 | 1013.1 |
| 20260903211601 | 82 | 0 | 0.0 | 2.0 | 0.00 | 0.01 | 0.00 | 83 | 1013.0 |
| 20260903211047 | 82 | 0 | 0.0 | 0.0 | 0.00 | 0.01 | 0.00 | 84 | 1012.9 |
| 20260903210546 | 81 | 0 | 0.0 | 0.0 | 0.00 | 0.01 | 0.00 | 84 | 1013.0 |
| 20260903210120 | 81 | 0 | 0.0 | 1.0 | 0.00 | 0.01 | 0.00 | 83 | 1013.1 |
| 20260903205543 | 81 | 0 | 0.0 | 2.0 | 0.00 | 0.01 | 0.00 | 83 | 1013.0 |
| 20260903205044 | 81 | 0 | 0.0 | 4.0 | 0.00 | 0.01 | 0.00 | 83 | 1013.0 |
| 20260903204620 | 81 | 0 | 0.0 | 4.0 | 0.00 | 0.01 | 0.00 | 82 | 1013.0 |
| 20260903204046 | 81 | 188 | 1.0 | 5.0 | 0.00 | 0.01 | 0.00 | 83 | 1013.0 |
| 20260903203542 | 80 | 188 | 2.0 | 5.0 | 0.00 | 0.01 | 0.00 | 83 | 1013.1 |
| 20260903203100 | 80 | 188 | 2.0 | 5.0 | 0.00 | 0.01 | 0.00 | 83 | 1013.1 |
| 20260903202546 | 80 | 190 | 2.0 | 5.0 | 0.00 | 0.01 | 0.00 | 83 | 1013.1 |
| 20260903202044 | 80 | 187 | 3.0 | 5.0 | 0.00 | 0.01 | 0.00 | 84 | 1013.1 |
| 20260903201600 | 80 | 163 | 3.0 | 5.0 | 0.00 | 0.01 | 0.00 | 83 | 1013.1 |
| 20260903201048 | 80 | 185 | 2.0 | 5.0 | 0.00 | 0.01 | 0.00 | 85 | 1013.3 |
| 20260903200546 | 80 | 183 | 3.0 | 6.0 | 0.00 | 0.01 | 0.00 | 84 | 1013.1 |
| 20260903200059 | 80 | 194 | 4.0 | 7.0 | 0.00 | 0.01 | 0.00 | 84 | 1013.0 |
| 20260903195545 | 80 | 182 | 4.0 | 7.0 | 0.00 | 0.01 | 0.00 | 84 | 1013.1 |
| 20260903195046 | 79 | 194 | 4.0 | 7.0 | 0.00 | 0.01 | 0.00 | 84 | 1013.0 |
| 20260903194605 | 79 | 191 | 4.0 | 7.0 | 0.00 | 0.01 | 0.00 | 86 | 1013.1 |
| 20260903194045 | 78 | 173 | 3.0 | 6.0 | 0.00 | 0.01 | 0.00 | 89 | 1013.3 |
| 20260903193545 | 78 | 191 | 2.0 | 4.0 | 0.00 | 0.01 | 0.00 | 92 | 1013.4 |
| 20260903193059 | 78 | 186 | 1.0 | 4.0 | 0.00 | 0.01 | 0.00 | 94 | 1013.4 |
| 20260903192547 | 77 | 171 | 0.0 | 2.0 | 0.00 | 0.01 | 0.00 | 95 | 1013.5 |
| 20260903192046 | 77 | 0 | 0.0 | 2.0 | 0.00 | 0.01 | 0.00 | 95 | 1013.5 |
| 20260903191559 | 77 | 0 | 0.0 | 2.0 | 0.00 | 0.01 | 0.00 | 95 | 1013.5 |
| 20260903191046 | 77 | 171 | 0.0 | 2.0 | 0.00 | 0.01 | 0.00 | 96 | 1013.4 |
| 20260903190546 | 77 | 0 | 0.0 | 1.0 | 0.00 | 0.01 | 0.00 | 97 | 1013.6 |
| 20260903190106 | 77 | 0 | 0.0 | 2.0 | 0.00 | 0.01 | 0.00 | 97 | 1013.8 |
| 20260903185546 | 76 | 0 | 0.0 | 2.0 | 0.00 | 0.01 | 0.00 | 97 | 1013.8 |
| 20260903185046 | 76 | 171 | 0.0 | 2.0 | 0.00 | 0.01 | 0.00 | 97 | 1013.5 |
| 20260903184604 | 76 | 171 | 0.0 | 2.0 | 0.00 | 0.01 | 0.00 | 97 | 1013.5 |
| 20260903184046 | 75 | 171 | 0.0 | 2.0 | 0.00 | 0.01 | 0.00 | 97 | 1013.6 |
| 20260903183545 | 75 | 0 | 0.0 | 1.0 | 0.00 | 0.01 | 0.00 | 97 | 1013.8 |
| 20260903183104 | 75 | 0 | 0.0 | 2.0 | 0.00 | 0.01 | 0.00 | 97 | 1014.0 |
| 20260903182548 | 74 | 171 | 0.0 | 2.0 | 0.00 | 0.01 | 0.00 | 96 | 1014.0 |
| 20260903182050 | 74 | 0 | 0.0 | 2.0 | 0.00 | 0.01 | 0.00 | 96 | 1014.1 |
| 20260903181600 | 74 | 171 | 0.0 | 4.0 | 0.00 | 0.01 | 0.00 | 96 | 1014.1 |
| 20260903181046 | 74 | 171 | 1.0 | 4.0 | 0.00 | 0.01 | 0.00 | 96 | 1014.1 |
| 20260903180546 | 73 | 179 | 0.0 | 4.0 | 0.00 | 0.01 | 0.00 | 96 | 1014.0 |
| 20260903180105 | 73 | 61 | 0.0 | 3.0 | 0.00 | 0.01 | 0.00 | 96 | 1014.2 |
| 20260903175547 | 73 | 0 | 0.0 | 3.0 | 0.00 | 0.01 | 0.00 | 95 | 1014.1 |
| 20260903175046 | 73 | 57 | 0.0 | 3.0 | 0.00 | 0.01 | 0.00 | 95 | 1014.0 |
| 20260903174601 | 73 | 5 | 0.0 | 3.0 | 0.00 | 0.01 | 0.00 | 95 | 1014.3 |
| 20260903174045 | 73 | 22 | 0.0 | 3.0 | 0.00 | 0.01 | 0.00 | 95 | 1014.0 |
| 20260903173546 | 72 | 17 | 0.0 | 2.0 | 0.00 | 0.01 | 0.00 | 95 | 1013.8 |
| 20260903173106 | 72 | 0 | 0.0 | 2.0 | 0.00 | 0.01 | 0.00 | 95 | 1013.6 |
| 20260903172546 | 72 | 0 | 0.0 | 2.0 | 0.00 | 0.01 | 0.00 | 95 | 1013.3 |
| 20260903172045 | 72 | 0 | 0.0 | 4.0 | 0.00 | 0.01 | 0.00 | 94 | 1013.4 |
| 20260903171604 | 71 | 0 | 0.0 | 4.0 | 0.00 | 0.01 | 0.00 | 94 | 1013.4 |